Woody Richerson — WDF9621 — position and weather

sailwx.info

Track history (hours):
 
Tides and Currents Weather Stations Pressure Air Temp Water Temp Dewpoint Dewpoint Depression Visibility Wind Speed Wind Dir Waves Ship Positions

Woody Richerson

Owner: Florida Marine, LLC, Mandeville, LA. More information available from US FCC via Universal Licensing System and Coast Guard Vessel Documentation Center.

Last reported at 2014-Oct-26 13:16 UTC. Time now 2014-Oct-31 21:37 UTC.
Position N 29°27' W 094°41'.

Length 27 m.

Type: Other ship. MMSI: 367507070.

Date/timePositionNaut miles runAvg speedWind from/ knotsBaromVisibWave heightAir tempDewpointWater temp
2014-Oct-26 13:16N 29°27' W 094°41'26 3.8
2014-Oct-26 06:33N 29°44' W 095°03'0 0.0
2014-Oct-26 04:25N 29°44' W 095°03'0 0.0
2014-Oct-26 03:11N 29°44' W 095°03'0 0.0
2014-Oct-25 23:31N 29°44' W 095°03'0 0.0
2014-Oct-25 22:29N 29°44' W 095°03'0 0.0
2014-Oct-25 17:31N 29°44' W 095°03'0 0.0
2014-Oct-25 16:22N 29°44' W 095°03'0 0.2
2014-Oct-25 14:32N 29°44' W 095°03'3 3.2
2014-Oct-25 13:33N 29°47' W 095°04'1 0.6
2014-Oct-25 12:33N 29°47' W 095°04'0 0.1
2014-Oct-25 11:33N 29°47' W 095°04'1 0.7
2014-Oct-25 10:33N 29°47' W 095°04'2 1.6
2014-Oct-25 09:33N 29°46' W 095°06'0 0.0
2014-Oct-25 08:33N 29°46' W 095°06'0 0.0
2014-Oct-25 07:33N 29°46' W 095°06'0 0.0
2014-Oct-25 06:33N 29°46' W 095°06'0 0.0
2014-Oct-25 05:33N 29°46' W 095°06'0 0.0
2014-Oct-25 04:33N 29°46' W 095°06'0 0.0
2014-Oct-25 03:32N 29°46' W 095°06'1 0.7
2014-Oct-25 02:23N 29°46' W 095°06'0 0.0
2014-Oct-25 01:23N 29°45' W 095°06'3 2.7
2014-Oct-25 00:22N 29°47' W 095°04'0 0.3
2014-Oct-24 23:31N 29°47' W 095°04'1 0.5
2014-Oct-24 21:29N 29°46' W 095°05'0 0.0
2014-Oct-24 20:32N 29°46' W 095°05'0 0.0
2014-Oct-24 19:12N 29°46' W 095°05'0 0.0
2014-Oct-24 15:24N 29°46' W 095°05'1 0.3
2014-Oct-24 13:33N 29°46' W 095°05'3 3.1
2014-Oct-24 12:32N 29°44' W 095°02'4 3.7
2014-Oct-24 11:33N 29°41' W 094°59'4 4.4
2014-Oct-24 10:33N 29°37' W 094°57'5 4.5
2014-Oct-24 09:33N 29°33' W 094°55'5 4.5
2014-Oct-24 08:33N 29°29' W 094°52'8 3.7
2014-Oct-24 06:21N 29°23' W 094°47'7 0.1
2014-Oct-22 09:09N 29°27' W 094°41'0 0.0
2014-Oct-22 05:28N 29°27' W 094°41'9 0.5
2014-Oct-21 12:33N 29°29' W 094°52'5 5.5
2014-Oct-21 11:33N 29°33' W 094°55'5 5.4
2014-Oct-21 10:33N 29°38' W 094°58'5 5.1
2014-Oct-21 09:33N 29°42' W 095°01'5 4.8
2014-Oct-21 08:33N 29°46' W 095°05'6 4.9
2014-Oct-21 07:26N 29°45' W 095°11'3 3.1
2014-Oct-21 06:27N 29°43' W 095°14'0 0.0
2014-Oct-20 08:05N 29°43' W 095°14'1 1.1
2014-Oct-20 07:32N 29°44' W 095°14'5 4.7
2014-Oct-20 06:30N 29°44' W 095°08'4 4.1
2014-Oct-20 05:33N 29°45' W 095°04'5 4.7
2014-Oct-20 04:33N 29°42' W 094°60'5 5.3
2014-Oct-20 03:33N 29°37' W 094°57'6 5.8
2014-Oct-20 02:33N 29°32' W 094°54'  
Track history (hours):
 
Tides and Currents Weather Stations Pressure Air Temp Water Temp Dewpoint Dewpoint Depression Visibility Wind Speed Wind Dir Waves Ship Positions

Woody Richerson

Owner: Florida Marine, LLC, Mandeville, LA. More information available from US FCC via Universal Licensing System and Coast Guard Vessel Documentation Center.

Last reported at 2014-Oct-26 13:16 UTC. Time now 2014-Oct-31 21:37 UTC.
Position N 29°27' W 094°41'.

Length 27 m.

Type: Other ship. MMSI: 367507070.

Date/timePositionNaut miles runAvg speedWind from/ knotsBaromVisibWave heightAir tempDewpointWater temp
2014-Oct-26 13:16N 29°27' W 094°41'26 3.8
2014-Oct-26 06:33N 29°44' W 095°03'0 0.0
2014-Oct-26 04:25N 29°44' W 095°03'0 0.0
2014-Oct-26 03:11N 29°44' W 095°03'0 0.0
2014-Oct-25 23:31N 29°44' W 095°03'0 0.0
2014-Oct-25 22:29N 29°44' W 095°03'0 0.0
2014-Oct-25 17:31N 29°44' W 095°03'0 0.0
2014-Oct-25 16:22N 29°44' W 095°03'0 0.2
2014-Oct-25 14:32N 29°44' W 095°03'3 3.2
2014-Oct-25 13:33N 29°47' W 095°04'1 0.6
2014-Oct-25 12:33N 29°47' W 095°04'0 0.1
2014-Oct-25 11:33N 29°47' W 095°04'1 0.7
2014-Oct-25 10:33N 29°47' W 095°04'2 1.6
2014-Oct-25 09:33N 29°46' W 095°06'0 0.0
2014-Oct-25 08:33N 29°46' W 095°06'0 0.0
2014-Oct-25 07:33N 29°46' W 095°06'0 0.0
2014-Oct-25 06:33N 29°46' W 095°06'0 0.0
2014-Oct-25 05:33N 29°46' W 095°06'0 0.0
2014-Oct-25 04:33N 29°46' W 095°06'0 0.0
2014-Oct-25 03:32N 29°46' W 095°06'1 0.7
2014-Oct-25 02:23N 29°46' W 095°06'0 0.0
2014-Oct-25 01:23N 29°45' W 095°06'3 2.7
2014-Oct-25 00:22N 29°47' W 095°04'0 0.3
2014-Oct-24 23:31N 29°47' W 095°04'1 0.5
2014-Oct-24 21:29N 29°46' W 095°05'0 0.0
2014-Oct-24 20:32N 29°46' W 095°05'0 0.0
2014-Oct-24 19:12N 29°46' W 095°05'0 0.0
2014-Oct-24 15:24N 29°46' W 095°05'1 0.3
2014-Oct-24 13:33N 29°46' W 095°05'3 3.1
2014-Oct-24 12:32N 29°44' W 095°02'4 3.7
2014-Oct-24 11:33N 29°41' W 094°59'4 4.4
2014-Oct-24 10:33N 29°37' W 094°57'5 4.5
2014-Oct-24 09:33N 29°33' W 094°55'5 4.5
2014-Oct-24 08:33N 29°29' W 094°52'8 3.7
2014-Oct-24 06:21N 29°23' W 094°47'7 0.1
2014-Oct-22 09:09N 29°27' W 094°41'0 0.0
2014-Oct-22 05:28N 29°27' W 094°41'9 0.5
2014-Oct-21 12:33N 29°29' W 094°52'5 5.5
2014-Oct-21 11:33N 29°33' W 094°55'5 5.4
2014-Oct-21 10:33N 29°38' W 094°58'5 5.1
2014-Oct-21 09:33N 29°42' W 095°01'5 4.8
2014-Oct-21 08:33N 29°46' W 095°05'6 4.9
2014-Oct-21 07:26N 29°45' W 095°11'3 3.1
2014-Oct-21 06:27N 29°43' W 095°14'0 0.0
2014-Oct-20 08:05N 29°43' W 095°14'1 1.1
2014-Oct-20 07:32N 29°44' W 095°14'5 4.7
2014-Oct-20 06:30N 29°44' W 095°08'4 4.1
2014-Oct-20 05:33N 29°45' W 095°04'5 4.7
2014-Oct-20 04:33N 29°42' W 094°60'5 5.3
2014-Oct-20 03:33N 29°37' W 094°57'6 5.8
2014-Oct-20 02:33N 29°32' W 094°54'  

Dump ship's entire track history